EW5835 Weather Reports


Display with metric or nautical units.
time (UTC)temp
F
wind
direction
speed
MPH
gust
MPH
rain 1hr
in
rain 24hr
in
rain mn
in
humidity
%
barometer
mb
20210805220515 78 3 1.0 4.0 0.00 0.00 0.00 58 1019.6
20210805220016 78 83 1.0 5.0 0.00 0.00 0.00 57 1019.6
20210805215515 79 58 1.0 5.0 0.00 0.00 0.00 61 1019.7
20210805215014 79 90 0.0 4.0 0.00 0.00 0.00 59 1019.6
20210805214515 79 83 1.0 11.0 0.00 0.00 0.00 58 1019.6
20210805214014 79 355 2.0 11.0 0.00 0.00 0.00 56 1019.6
20210805213512 80 261 2.0 4.0 0.00 0.00 0.00 57 1019.5
20210805213013 80 316 2.0 4.0 0.00 0.00 0.00 60 1019.5
20210805212513 80 130 2.0 4.0 0.00 0.00 0.00 58 1019.4
20210805212013 80 66 0.0 3.0 0.00 0.00 0.00 62 1019.4
20210805211512 79 102 1.0 4.0 0.00 0.00 0.00 58 1019.5
20210805211013 79 102 1.0 4.0 0.00 0.00 0.00 66 1019.4
20210805210512 79 92 1.0 5.0 0.00 0.00 0.00 61 1019.4
20210805210012 80 102 3.0 5.0 0.00 0.00 0.00 62 1019.5
20210805205511 80 109 1.0 5.0 0.00 0.00 0.00 60 1019.4
20210805205012 80 23 0.0 2.0 0.00 0.00 0.00 61 1019.5
20210805204512 80 58 0.0 4.0 0.00 0.00 0.00 64 1019.5
20210805204013 80 86 0.0 4.0 0.00 0.00 0.00 64 1019.4
20210805203511 80 107 0.0 2.0 0.00 0.00 0.00 60 1019.5
20210805203011 80 106 1.0 2.0 0.00 0.00 0.00 58 1019.5
20210805202510 80 238 0.0 2.0 0.00 0.00 0.00 55 1019.5
20210805202008 79 89 0.0 2.0 0.00 0.00 0.00 61 1019.6
20210805201509 79 90 1.0 2.0 0.00 0.00 0.00 64 1019.7
20210805201010 79 89 0.0 2.0 0.00 0.00 0.00 61 1019.7
20210805200510 80 71 0.0 3.0 0.00 0.00 0.00 58 1019.8
20210805200010 80 120 0.0 3.0 0.00 0.00 0.00 58 1019.8
20210805195509 80 69 0.0 1.0 0.00 0.00 0.00 60 1019.7
20210805195010 80 66 0.0 1.0 0.00 0.00 0.00 58 1019.8
20210805194509 80 25 0.0 1.0 0.00 0.00 0.00 55 1019.8
20210805194009 80 345 0.0 1.0 0.00 0.00 0.00 54 1019.8
20210805193509 80 344 0.0 2.0 0.00 0.00 0.00 56 1019.8
20210805193010 79 350 1.0 3.0 0.00 0.00 0.00 54 1019.8
20210805192509 79 319 0.0 4.0 0.00 0.00 0.00 54 1019.9
20210805192010 80 300 2.0 6.0 0.00 0.00 0.00 52 1019.8
20210805191509 79 336 1.0 6.0 0.00 0.00 0.00 56 1019.9
20210805191009 80 8 3.0 5.0 0.00 0.00 0.00 58 1019.8
20210805190508 80 86 1.0 4.0 0.00 0.00 0.00 59 1019.8
20210805190009 80 173 1.0 4.0 0.00 0.00 0.00 54 1019.9
20210805185507 80 207 3.0 4.0 0.00 0.00 0.00 55 1019.9
20210805185010 80 195 1.0 3.0 0.00 0.00 0.00 54 1019.9
20210805184506 79 175 1.0 3.0 0.00 0.00 0.00 53 1019.9
20210805184008 79 140 1.0 2.0 0.00 0.00 0.00 54 1019.9
20210805183507 79 151 1.0 3.0 0.00 0.00 0.00 58 1020.0
20210805183007 79 127 1.0 3.0 0.00 0.00 0.00 54 1020.0
20210805182509 79 118 1.0 4.0 0.00 0.00 0.00 56 1020.1
20210805182006 79 96 2.0 4.0 0.00 0.00 0.00 53 1020.1
20210805181507 79 89 1.0 3.0 0.00 0.00 0.00 53 1020.1
20210805181006 79 82 1.0 3.0 0.00 0.00 0.00 58 1020.1
20210805180507 79 85 2.0 4.0 0.00 0.00 0.00 57 1020.3
20210805180006 79 107 1.0 4.0 0.00 0.00 0.00 58 1020.1
20210805175506 80 100 2.0 4.0 0.00 0.00 0.00 54 1020.2
20210805175007 79 72 1.0 4.0 0.00 0.00 0.00 53 1020.2
20210805174506 80 118 3.0 4.0 0.00 0.00 0.00 51 1020.3
20210805174006 80 79 1.0 2.0 0.00 0.00 0.00 56 1020.2
20210805173504 80 124 0.0 2.0 0.00 0.00 0.00 54 1020.2
20210805173005 79 106 1.0 3.0 0.00 0.00 0.00 58 1020.2
20210805172504 79 272 0.0 5.0 0.00 0.00 0.00 54 1020.2
20210805172005 78 159 2.0 5.0 0.00 0.00 0.00 54 1020.3
20210805171505 78 289 0.0 4.0 0.00 0.00 0.00 54 1020.2
20210805171004 78 189 3.0 4.0 0.00 0.00 0.00 54 1020.3
20210805170504 78 92 2.0 5.0 0.00 0.00 0.00 54 1020.3
20210805170005 78 116 2.0 5.0 0.00 0.00 0.00 55 1020.3
20210805165503 78 128 1.0 3.0 0.00 0.00 0.00 60 1020.3
20210805165003 78 113 0.0 2.0 0.00 0.00 0.00 56 1020.4
20210805164501 78 343 0.0 4.0 0.00 0.00 0.00 55 1020.4
20210805164004 77 199 1.0 4.0 0.00 0.00 0.00 55 1020.5
20210805163503 78 111 2.0 4.0 0.00 0.00 0.00 55 1020.5
20210805163004 78 125 1.0 5.0 0.00 0.00 0.00 57 1020.6
20210805162503 79 117 2.0 5.0 0.00 0.00 0.00 54 1020.7
20210805162003 79 250 1.0 3.0 0.00 0.00 0.00 55 1020.7
20210805161503 78 214 0.0 5.0 0.00 0.00 0.00 55 1020.7
20210805161003 78 238 1.0 6.0 0.00 0.00 0.00 55 1020.8
20210805160504 78 100 2.0 9.0 0.00 0.00 0.00 56 1020.7
20210805160002 78 63 3.0 9.0 0.00 0.00 0.00 56 1020.7
20210805155503 78 221 1.0 3.0 0.00 0.00 0.00 57 1020.7
20210805155002 77 189 1.0 3.0 0.00 0.00 0.00 57 1020.7
20210805154503 76 200 2.0 3.0 0.00 0.00 0.00 57 1020.8
20210805154001 76 231 2.0 4.0 0.00 0.00 0.00 59 1020.8
20210805153500 76 100 2.0 4.0 0.00 0.00 0.00 61 1020.9
20210805153001 76 89 2.0 7.0 0.00 0.00 0.00 66 1021.0
20210805152501 76 55 2.0 7.0 0.00 0.00 0.00 64 1021.1
20210805152001 77 93 2.0 4.0 0.00 0.00 0.00 59 1021.1
20210805151501 77 295 1.0 5.0 0.00 0.00 0.00 57 1021.1
20210805151000 77 102 3.0 5.0 0.00 0.00 0.00 62 1021.0
20210805150500 76 99 2.0 4.0 0.00 0.00 0.00 56 1021.1
20210805145959 76 145 1.0 4.0 0.00 0.00 0.00 57 1021.1
20210805145500 77 72 3.0 5.0 0.00 0.00 0.00 59 1021.1
20210805144959 76 109 0.0 5.0 0.00 0.00 0.00 60 1021.1
20210805144459 76 94 3.0 7.0 0.00 0.00 0.00 60 1021.0
20210805143959 76 90 1.0 7.0 0.00 0.00 0.00 59 1020.9
20210805143458 75 192 2.0 10.0 0.00 0.00 0.00 60 1021.0
20210805142959 75 158 4.0 10.0 0.00 0.00 0.00 59 1021.1
20210805142459 75 224 2.0 5.0 0.00 0.00 0.00 58 1021.1
20210805141959 75 254 0.0 3.0 0.00 0.00 0.00 63 1021.1
20210805141459 74 223 2.0 3.0 0.00 0.00 0.00 63 1021.1
20210805140959 74 237 2.0 4.0 0.00 0.00 0.00 63 1021.1
20210805140458 74 237 3.0 4.0 0.00 0.00 0.00 63 1021.1
20210805140000 74 209 2.0 4.0 0.00 0.00 0.00 64 1021.1
20210805135457 74 161 1.0 3.0 0.00 0.00 0.00 68 1021.0
20210805134959 73 237 1.0 3.0 0.00 0.00 0.00 66 1021.0
20210805134457 73 179 1.0 3.0 0.00 0.00 0.00 68 1021.0
20210805133956 72 206 2.0 3.0 0.00 0.00 0.00 68 1021.0
20210805133456 71 221 2.0 3.0 0.00 0.00 0.00 68 1021.1
20210805132956 71 166 1.0 2.0 0.00 0.00 0.00 72 1021.1
20210805132457 71 238 1.0 2.0 0.00 0.00 0.00 73 1021.0
20210805131958 70 172 0.0 2.0 0.00 0.00 0.00 77 1021.1
20210805131457 70 233 1.0 2.0 0.00 0.00 0.00 76 1021.0
20210805130957 69 259 0.0 1.0 0.00 0.00 0.00 78 1021.1
20210805130455 68 111 0.0 0.0 0.00 0.00 0.00 80 1021.1
20210805125955 68 169 0.0 1.0 0.00 0.00 0.00 82 1021.1
20210805125457 67 169 0.0 1.0 0.00 0.00 0.00 84 1021.1
20210805124957 66 193 0.0 2.0 0.00 0.00 0.00 85 1021.2
20210805124454 66 202 1.0 2.0 0.00 0.00 0.00 86 1021.2
20210805123955 65 178 0.0 3.0 0.00 0.00 0.00 87 1021.2
20210805123456 65 217 1.0 3.0 0.00 0.00 0.00 87 1021.2
20210805122956 64 142 0.0 0.0 0.00 0.00 0.00 89 1021.2
20210805122454 64 202 0.0 0.0 0.00 0.00 0.00 90 1021.2
20210805121955 63 171 0.0 0.0 0.00 0.00 0.00 92 1021.3
20210805121455 63 171 0.0 0.0 0.00 0.00 0.00 92 1021.2
20210805120954 62 227 0.0 0.0 0.00 0.00 0.00 93 1021.3
20210805120453 62 227 0.0 0.0 0.00 0.00 0.00 94 1021.2
20210805115954 61 227 0.0 0.0 0.00 0.00 0.00 94 1021.3
20210805115454 61 230 0.0 0.0 0.00 0.00 0.00 94 1021.2
20210805114955 61 230 0.0 0.0 0.00 0.00 0.00 94 1021.3
20210805114454 61 230 0.0 0.0 0.00 0.00 0.00 94 1021.4
20210805113953 61 231 0.0 1.0 0.00 0.00 0.00 94 1021.4
20210805113452 61 230 0.0 1.0 0.00 0.00 0.00 94 1021.4
20210805112952 60 213 0.0 0.0 0.00 0.00 0.00 94 1021.5
20210805112454 60 213 0.0 1.0 0.00 0.00 0.00 94 1021.5
20210805111952 60 213 0.0 1.0 0.00 0.00 0.00 94 1021.5
20210805111449 60 213 0.0 1.0 0.00 0.00 0.00 94 1021.5
20210805110952 60 224 0.0 0.0 0.00 0.00 0.00 94 1021.5
20210805110453 60 224 0.0 0.0 0.00 0.00 0.00 94 1021.5
20210805105951 60 224 0.0 0.0 0.00 0.00 0.00 94 1021.4
20210805105452 60 217 0.0 0.0 0.00 0.00 0.00 94 1021.3
20210805104952 60 237 0.0 0.0 0.00 0.00 0.00 94 1021.3
20210805104451 60 107 0.0 0.0 0.00 0.00 0.00 94 1021.3
20210805103952 60 107 0.0 0.0 0.00 0.00 0.00 94 1021.3
20210805103451 60 109 0.0 1.0 0.00 0.00 0.00 94 1021.2
20210805102951 60 109 0.0 1.0 0.00 0.00 0.00 94 1021.2
20210805102452 60 109 0.0 0.0 0.00 0.00 0.00 94 1021.2
20210805101951 60 109 0.0 1.0 0.00 0.00 0.00 94 1021.2
20210805101449 60 109 0.0 1.0 0.00 0.00 0.00 94 1021.2
20210805100950 60 24 0.0 0.0 0.00 0.00 0.00 94 1021.2
20210805100451 60 24 0.0 0.0 0.00 0.00 0.00 93 1021.1
20210805095949 60 24 0.0 0.0 0.00 0.00 0.00 93 1021.1
20210805095450 60 24 0.0 2.0 0.00 0.00 0.00 94 1021.1
20210805094950 60 24 0.0 2.0 0.00 0.00 0.00 94 1020.9
20210805094449 60 235 0.0 2.0 0.00 0.00 0.00 94 1020.9
20210805093947 60 235 1.0 2.0 0.00 0.00 0.00 95 1020.9
20210805093448 60 244 0.0 1.0 0.00 0.00 0.00 95 1020.8
20210805092946 59 247 0.0 1.0 0.00 0.00 0.00 95 1020.8
20210805092446 59 202 0.0 0.0 0.00 0.00 0.00 95 1020.9
20210805091948 59 202 0.0 0.0 0.00 0.00 0.00 95 1021.0
20210805091448 59 202 0.0 0.0 0.00 0.00 0.00 95 1021.1
20210805090948 59 202 0.0 0.0 0.00 0.00 0.00 95 1021.1
20210805090448 59 202 0.0 0.0 0.00 0.00 0.00 95 1020.9
20210805085947 59 202 0.0 0.0 0.00 0.00 0.00 95 1020.8
20210805085448 59 202 0.0 0.0 0.00 0.00 0.00 95 1020.8
20210805084944 59 202 0.0 0.0 0.00 0.00 0.00 95 1020.8
20210805084449 59 202 0.0 0.0 0.00 0.00 0.00 95 1020.7
20210805083947 59 202 0.0 0.0 0.00 0.00 0.00 95 1020.7
20210805083449 59 202 0.0 1.0 0.00 0.00 0.00 95 1020.7
20210805082948 59 221 0.0 1.0 0.00 0.00 0.00 95 1020.6
20210805082447 59 230 0.0 0.0 0.00 0.00 0.00 95 1020.6
20210805081946 59 223 0.0 0.0 0.00 0.00 0.00 95 1020.6
20210805081446 59 223 0.0 0.0 0.00 0.00 0.00 94 1020.8
20210805080946 59 223 0.0 0.0 0.00 0.00 0.00 95 1020.9
20210805080447 59 223 0.0 0.0 0.00 0.00 0.00 95 1020.9
20210805075947 59 223 0.0 0.0 0.00 0.00 0.00 95 1020.9
20210805075446 59 223 0.0 0.0 0.00 0.00 0.00 95 1021.0
20210805074945 59 223 0.0 0.0 0.00 0.00 0.00 95 1021.2
20210805074446 59 223 0.0 0.0 0.00 0.00 0.00 95 1021.2
20210805073944 59 223 0.0 0.0 0.00 0.00 0.00 95 1021.3
20210805073446 59 223 0.0 0.0 0.00 0.00 0.00 95 1021.3
20210805072944 59 223 0.0 0.0 0.00 0.00 0.00 95 1021.3
20210805072445 58 223 0.0 0.0 0.00 0.00 0.00 95 1021.4
20210805071944 59 223 0.0 0.0 0.00 0.00 0.00 94 1021.5
20210805071445 59 223 0.0 0.0 0.00 0.00 0.00 94 1021.3
20210805070944 59 223 0.0 0.0 0.00 0.00 0.00 94 1021.3
20210805070443 59 223 0.0 0.0 0.00 0.00 0.00 94 1021.4
20210805065944 59 223 0.0 0.0 0.00 0.00 0.00 94 1021.4
20210805065443 59 251 0.0 1.0 0.00 0.00 0.00 94 1021.3
20210805064943 59 251 0.0 1.0 0.00 0.00 0.00 94 1021.5
20210805064444 59 251 0.0 0.0 0.00 0.00 0.00 93 1021.5
20210805063942 59 251 0.0 1.0 0.00 0.00 0.00 93 1021.7
20210805063443 59 251 0.0 1.0 0.00 0.00 0.00 93 1021.8
20210805062943 59 251 0.0 0.0 0.00 0.00 0.00 92 1021.8
20210805062443 60 251 0.0 0.0 0.00 0.00 0.00 92 1021.8
20210805061943 60 251 0.0 0.0 0.00 0.00 0.00 91 1021.8
20210805061442 60 251 0.0 0.0 0.00 0.00 0.00 91 1021.7
20210805060941 60 251 0.0 0.0 0.00 0.00 0.00 91 1021.7
20210805060443 60 251 0.0 1.0 0.00 0.00 0.00 90 1021.7
20210805055943 61 251 0.0 1.0 0.00 0.00 0.00 90 1021.5
20210805055442 61 230 0.0 1.0 0.00 0.00 0.00 90 1021.5
20210805054940 61 288 0.0 1.0 0.00 0.00 0.00 90 1021.4
20210805054441 61 86 0.0 1.0 0.00 0.00 0.00 89 1021.5
20210805053942 62 86 0.0 1.0 0.00 0.00 0.00 89 1021.7
20210805053440 62 86 0.0 1.0 0.00 0.00 0.00 89 1021.7
20210805052941 62 86 0.0 1.0 0.00 0.00 0.00 88 1021.8
20210805052440 62 86 0.0 2.0 0.00 0.00 0.00 88 1021.8
20210805051939 62 90 0.0 2.0 0.00 0.00 0.00 88 1021.8
20210805051442 62 347 0.0 4.0 0.00 0.00 0.00 88 1021.8
20210805050940 62 18 1.0 4.0 0.00 0.00 0.00 89 1022.0
20210805050439 62 326 0.0 1.0 0.00 0.00 0.00 90 1022.0
20210805045940 62 48 0.0 1.0 0.00 0.00 0.00 90 1022.0
20210805045439 62 78 0.0 1.0 0.00 0.00 0.00 90 1022.0
20210805044941 62 90 0.0 1.0 0.00 0.00 0.00 90 1022.0
20210805044439 62 90 0.0 2.0 0.00 0.00 0.00 89 1022.1
20210805043942 62 240 0.0 2.0 0.00 0.00 0.00 89 1022.1
20210805043443 62 309 0.0 2.0 0.00 0.00 0.00 89 1022.0
20210805042940 62 323 1.0 2.0 0.00 0.00 0.00 90 1022.0
20210805042438 62 133 0.0 0.0 0.00 0.00 0.00 90 1022.0
20210805041939 62 137 0.0 0.0 0.00 0.00 0.00 90 1022.0
20210805041438 61 137 0.0 0.0 0.00 0.00 0.00 91 1022.1
20210805040938 61 298 0.0 0.0 0.00 0.00 0.00 91 1022.1
20210805040439 61 330 0.0 0.0 0.00 0.00 0.00 91 1022.0
20210805035938 61 0 0.0 0.0 0.00 0.00 0.00 91 1022.1
20210805035436 61 0 0.0 0.0 0.00 0.00 0.00 92 1022.1
20210805034935 61 344 0.0 1.0 0.00 0.00 0.00 92 1022.1
20210805034436 61 344 0.0 2.0 0.00 0.00 0.00 92 1022.2
20210805033937 60 281 0.0 2.0 0.00 0.00 0.00 92 1022.2
20210805033438 60 233 0.0 0.0 0.00 0.00 0.00 92 1022.2
20210805032936 60 233 0.0 0.0 0.00 0.00 0.00 92 1022.3
20210805032437 60 233 0.0 0.0 0.00 0.00 0.00 92 1022.3
20210805031934 61 233 0.0 0.0 0.00 0.00 0.00 91 1022.3
20210805031435 61 233 0.0 1.0 0.00 0.00 0.00 91 1022.3
20210805030937 61 233 0.0 1.0 0.00 0.00 0.00 91 1022.3
20210805030437 61 313 0.0 0.0 0.00 0.00 0.00 90 1022.4
20210805025935 61 313 0.0 0.0 0.00 0.00 0.00 89 1022.4
20210805025443 62 313 0.0 0.0 0.00 0.00 0.00 89 1022.4
20210805024939 62 313 0.0 3.0 0.00 0.00 0.00 88 1022.5
20210805024437 62 319 0.0 3.0 0.00 0.00 0.00 88 1022.5
20210805023935 63 258 0.0 3.0 0.00 0.00 0.00 88 1022.6
20210805023436 63 350 0.0 3.0 0.00 0.00 0.00 89 1022.5
20210805022935 62 331 1.0 3.0 0.00 0.00 0.00 90 1022.7
20210805022437 62 333 0.0 1.0 0.00 0.00 0.00 89 1022.6
20210805021939 62 0 0.0 0.0 0.00 0.00 0.00 89 1022.6
20210805021433 62 0 0.0 0.0 0.00 0.00 0.00 89 1022.8
20210805020934 62 0 0.0 0.0 0.00 0.00 0.00 88 1022.8
20210805020434 63 0 0.0 0.0 0.00 0.00 0.00 88 1022.7
20210805015934 63 0 0.0 0.0 0.00 0.00 0.00 87 1022.7
20210805015434 63 0 0.0 0.0 0.00 0.00 0.00 87 1022.6
20210805014933 63 0 0.0 0.0 0.00 0.00 0.00 87 1022.6
20210805014433 63 0 0.0 0.0 0.00 0.00 0.00 86 1022.5
20210805013933 64 0 0.0 0.0 0.00 0.00 0.00 86 1022.5
20210805013432 64 79 0.0 0.0 0.00 0.00 0.00 86 1022.4
20210805012933 64 79 0.0 0.0 0.00 0.00 0.00 85 1022.3
20210805012434 64 79 0.0 0.0 0.00 0.00 0.00 85 1022.3
20210805011933 64 79 0.0 0.0 0.00 0.00 0.00 85 1022.3
20210805011431 64 79 0.0 0.0 0.00 0.00 0.00 84 1022.2
20210805010931 64 79 0.0 0.0 0.00 0.00 0.00 83 1022.2
20210805010431 65 79 0.0 0.0 0.00 0.00 0.00 82 1022.0
20210805005932 65 79 0.0 0.0 0.00 0.00 0.00 82 1021.8
20210805005432 65 79 0.0 0.0 0.00 0.00 0.00 81 1021.8
20210805004931 66 79 0.0 0.0 0.00 0.00 0.00 81 1021.9
20210805004431 66 79 0.0 0.0 0.00 0.00 0.00 79 1021.8
20210805003932 67 79 0.0 0.0 0.00 0.00 0.00 78 1021.8
20210805003431 67 79 0.0 0.0 0.00 0.00 0.00 76 1021.9
20210805002931 67 79 0.0 0.0 0.00 0.00 0.00 75 1021.8
20210805002430 68 79 0.0 0.0 0.00 0.00 0.00 75 1021.9
20210805001930 68 103 0.0 0.0 0.00 0.00 0.00 75 1021.9
20210805001430 68 103 0.0 1.0 0.00 0.00 0.00 74 1021.8
20210805000932 69 103 0.0 1.0 0.00 0.00 0.00 73 1021.9
20210805000432 69 100 0.0 1.0 0.00 0.00 0.00 73 1021.8
20210804235929 69 89 0.0 0.0 0.00 0.00 0.00 72 1021.8
20210804235430 69 89 0.0 0.0 0.00 0.00 0.00 72 1021.8
20210804234929 70 89 0.0 0.0 0.00 0.00 0.00 72 1021.7
20210804234430 70 89 0.0 1.0 0.00 0.00 0.00 71 1021.5
20210804233930 71 89 0.0 1.0 0.00 0.00 0.00 71 1021.4
20210804233429 71 90 0.0 1.0 0.00 0.00 0.00 70 1021.3
20210804232930 71 94 0.0 2.0 0.00 0.00 0.00 70 1021.4
20210804232427 72 94 0.0 2.0 0.00 0.00 0.00 68 1021.3
20210804231929 72 85 0.0 3.0 0.00 0.00 0.00 67 1021.4
20210804231428 72 118 0.0 3.0 0.00 0.00 0.00 67 1021.5
20210804230927 73 104 0.0 2.0 0.00 0.00 0.00 65 1021.5
20210804230428 73 89 0.0 2.0 0.00 0.00 0.00 65 1021.5
20210804225928 73 149 0.0 4.0 0.00 0.00 0.00 64 1021.4
20210804225427 73 92 1.0 4.0 0.00 0.00 0.00 63 1021.4
20210804224927 73 137 0.0 3.0 0.00 0.00 0.00 62 1021.4
20210804224427 73 110 2.0 5.0 0.00 0.00 0.00 62 1021.5
20210804223927 74 151 3.0 5.0 0.00 0.00 0.00 62 1021.4
20210804223426 74 199 2.0 4.0 0.00 0.00 0.00 61 1021.4
20210804222927 74 66 1.0 5.0 0.00 0.00 0.00 60 1021.2
20210804222427 74 262 2.0 5.0 0.00 0.00 0.00 61 1021.2
20210804221926 75 99 1.0 3.0 0.00 0.00 0.00 59 1021.3
20210804221428 75 104 1.0 3.0 0.00 0.00 0.00 59 1021.3